Date String (YYYY-MM-DD hh:mm:ss) UTC,Instrument flags,Ambient pressure (hPa),Sample flow (lpm),Bypass flow (lpm),Sample temperature (°C),Ambient temperature (°C),ASC tube jacket temperature (°C),LED temperature (°C),Box temperature (°C),Sample RH (%),Span deviation,Mass concentration (μg/m³),Mass concentration (μg/m³),Mass concentration (μg/m³)
DateTimeUTC,F1_M11,P_M11,Q1_M11,Q2_M11,T1_M11,T2_M11,T3_M11,T4_M11,T5_M11,U1_M11,ZSPAN_M11,X0_M11,X2_M11,X1_M11
2022-11-16 03:00:00,,0832.2,5.00,0.00,21.5,20.9,00.0,30.4,23.4,06.1,0000.0,0001.81,0001.38,0001.26
2022-11-16 03:01:00,,0832.2,5.01,0.00,21.5,20.7,00.0,30.4,23.3,06.3,0000.0,0001.90,0001.41,0001.26
2022-11-16 03:02:00,,0832.1,5.00,0.00,21.5,20.4,00.0,30.4,23.2,06.4,0000.0,0001.94,0001.43,0001.27
2022-11-16 03:03:00,,0832.2,4.99,0.00,21.4,20.1,00.0,30.4,23.2,06.4,0000.0,0001.97,0001.45,0001.28
2022-11-16 03:04:00,,0832.2,4.99,0.00,21.4,19.8,00.0,30.4,23.1,06.5,0000.0,0001.96,0001.46,0001.29
2022-11-16 03:05:00,,0832.2,5.00,0.00,21.3,19.6,00.0,30.4,23.0,06.5,0000.0,0001.94,0001.46,0001.30
2022-11-16 03:06:00,,0832.2,5.00,0.00,21.3,19.4,00.0,30.4,22.9,06.5,0000.0,0001.90,0001.45,0001.31
2022-11-16 03:07:00,,0832.2,5.00,0.00,21.2,19.3,00.0,30.3,22.8,06.6,0000.0,0001.90,0001.44,0001.31
2022-11-16 03:08:00,,0832.1,5.00,0.00,21.2,19.3,00.0,30.3,22.8,06.5,0000.0,0001.90,0001.44,0001.32
2022-11-16 03:09:00,,0832.2,5.02,0.00,21.2,20.3,00.0,30.2,23.0,06.5,0000.0,0001.93,0001.46,0001.33
2022-11-16 03:10:00,,0832.2,4.98,0.00,21.4,21.4,00.0,30.2,23.3,06.5,0000.0,0001.91,0001.45,0001.32
2022-11-16 03:11:00,,0832.1,5.00,0.00,21.4,21.1,00.0,30.3,23.3,06.5,0000.0,0001.91,0001.45,0001.32
2022-11-16 03:12:00,,0832.1,5.00,0.00,21.4,20.6,00.0,30.3,23.2,06.5,0000.0,0001.83,0001.42,0001.32
2022-11-16 03:13:00,,0832.2,5.00,0.00,21.3,20.1,00.0,30.3,23.0,06.5,0000.0,0001.81,0001.42,0001.33
2022-11-16 03:14:00,,0832.2,5.00,0.00,21.3,19.7,00.0,30.3,22.9,06.5,0000.0,0001.78,0001.42,0001.34
2022-11-16 03:15:00,,0832.1,5.00,0.00,21.2,19.5,00.0,30.3,22.8,06.5,0000.0,0001.76,0001.40,0001.33
2022-11-16 03:16:00,,0832.1,5.00,0.00,21.2,19.3,00.0,30.3,22.8,06.6,0000.0,0001.74,0001.39,0001.33
2022-11-16 03:17:00,,0832.1,5.00,0.00,21.2,19.2,00.0,30.3,22.7,06.6,0000.0,0001.75,0001.39,0001.34
2022-11-16 03:18:00,,0832.2,5.01,0.00,21.1,19.2,00.0,30.2,22.7,06.5,0000.0,0001.75,0001.39,0001.34
2022-11-16 03:19:00,,0832.1,5.01,0.00,21.2,20.2,00.0,30.2,22.9,06.6,0000.0,0001.75,0001.39,0001.33
2022-11-16 03:20:00,,0832.1,5.00,0.00,21.3,21.3,00.0,30.1,23.2,06.5,0000.0,0001.73,0001.38,0001.33
2022-11-16 03:21:00,,0832.1,5.00,0.00,21.4,21.3,00.0,30.2,23.3,06.6,0000.0,0001.75,0001.39,0001.34
2022-11-16 03:22:00,,0832.1,4.98,0.00,21.3,20.7,00.0,30.2,23.2,06.7,0000.0,0001.73,0001.39,0001.36
2022-11-16 03:23:00,,0832.1,5.01,0.00,21.3,20.2,00.0,30.2,23.0,06.7,0000.0,0001.71,0001.40,0001.37
2022-11-16 03:24:00,,0832.1,5.01,0.00,21.3,19.8,00.0,30.2,22.9,06.7,0000.0,0001.78,0001.43,0001.39
2022-11-16 03:25:00,,0832.1,5.00,0.00,21.2,19.6,00.0,30.2,22.9,06.7,0000.0,0001.87,0001.44,0001.40
2022-11-16 03:26:00,,0832.1,5.00,0.00,21.2,19.5,00.0,30.2,22.8,06.8,0000.0,0001.92,0001.47,0001.41
2022-11-16 03:27:00,,0832.1,5.00,0.00,21.2,19.4,00.0,30.2,22.8,06.9,0000.0,0001.94,0001.49,0001.43
2022-11-16 03:28:00,,0832.1,5.00,0.00,21.1,19.4,00.0,30.2,22.8,06.9,0000.0,0002.00,0001.52,0001.45
2022-11-16 03:29:00,,0832.1,5.00,0.00,21.1,19.4,00.0,30.2,22.8,06.9,0000.0,0002.16,0001.55,0001.46
2022-11-16 03:30:00,,0832.2,5.00,0.00,21.1,19.6,00.0,30.2,22.8,07.0,0000.0,0002.19,0001.56,0001.46
2022-11-16 03:31:00,,0832.2,5.01,0.00,21.2,20.7,00.0,30.1,23.1,06.9,0000.0,0002.24,0001.58,0001.47
2022-11-16 03:32:00,,0832.2,5.00,0.00,21.3,21.7,00.0,30.1,23.3,06.8,0000.0,0002.30,0001.61,0001.48
2022-11-16 03:33:00,,0832.2,4.99,0.00,21.4,21.5,00.0,30.2,23.4,06.8,0000.0,0002.34,0001.63,0001.49
2022-11-16 03:34:00,,0832.2,5.00,0.00,21.4,21.1,00.0,30.2,23.3,06.7,0000.0,0002.43,0001.65,0001.48
2022-11-16 03:35:00,,0832.2,5.01,0.00,21.4,20.6,00.0,30.2,23.2,06.6,0000.0,0002.44,0001.65,0001.48
2022-11-16 03:36:00,,0832.2,5.00,0.00,21.4,20.3,00.0,30.3,23.1,06.5,0000.0,0002.38,0001.65,0001.47
2022-11-16 03:37:00,,0832.1,5.00,0.00,21.3,20.1,00.0,30.3,23.1,06.6,0000.0,0002.35,0001.64,0001.46
2022-11-16 03:38:00,,0832.2,5.00,0.00,21.3,19.9,00.0,30.3,23.0,06.6,0000.0,0002.36,0001.64,0001.45
2022-11-16 03:39:00,,0832.3,5.00,0.00,21.3,19.7,00.0,30.3,23.0,06.5,0000.0,0002.32,0001.62,0001.44
2022-11-16 03:40:00,,0832.2,5.00,0.00,21.3,19.5,00.0,30.3,22.9,06.6,0000.0,0002.17,0001.60,0001.44
2022-11-16 03:41:00,,0832.3,5.00,0.00,21.2,19.3,00.0,30.2,22.8,06.7,0000.0,0002.18,0001.61,0001.45
2022-11-16 03:42:00,,0832.2,5.00,0.00,21.2,19.3,00.0,30.2,22.8,06.8,0000.0,0002.31,0001.66,0001.46
2022-11-16 03:43:00,,0832.3,5.00,0.00,21.1,19.2,00.0,30.2,22.7,06.9,0000.0,0002.29,0001.65,0001.47
2022-11-16 03:44:00,,0832.3,5.02,0.00,21.2,20.1,00.0,30.1,22.9,07.0,0000.0,0002.30,0001.65,0001.47
2022-11-16 03:45:00,,0832.3,5.00,0.00,21.3,21.3,00.0,30.1,23.1,07.0,0000.0,0002.26,0001.66,0001.48
2022-11-16 03:46:00,,0832.4,4.98,0.00,21.4,21.4,00.0,30.1,23.3,06.9,0000.0,0002.29,0001.68,0001.49
2022-11-16 03:47:00,,0832.4,5.01,0.00,21.4,20.9,00.0,30.2,23.2,06.9,0000.0,0002.37,0001.72,0001.51
2022-11-16 03:48:00,,0832.4,5.01,0.00,21.3,20.4,00.0,30.2,23.1,06.9,0000.0,0002.40,0001.74,0001.54
2022-11-16 03:49:00,,0832.4,5.01,0.00,21.3,20.1,00.0,30.2,23.0,06.9,0000.0,0002.36,0001.72,0001.53
2022-11-16 03:50:00,,0832.5,4.99,0.00,21.3,19.9,00.0,30.2,23.0,06.8,0000.0,0002.37,0001.73,0001.54
2022-11-16 03:51:00,,0832.5,4.99,0.00,21.3,19.8,00.0,30.2,23.0,06.9,0000.0,0002.37,0001.73,0001.55
2022-11-16 03:52:00,,0832.5,5.01,0.00,21.3,19.7,00.0,30.2,23.0,06.9,0000.0,0002.36,0001.73,0001.55
2022-11-16 03:53:00,,0832.5,5.01,0.00,21.3,19.7,00.0,30.2,23.0,06.8,0000.0,0002.25,0001.71,0001.56
2022-11-16 03:54:00,,0832.5,5.00,0.00,21.3,19.7,00.0,30.2,23.0,06.9,0000.0,0002.27,0001.71,0001.56
2022-11-16 03:55:00,,0832.5,4.99,0.00,21.3,19.7,00.0,30.2,23.0,06.8,0000.0,0002.30,0001.70,0001.55
2022-11-16 03:56:00,,0832.5,4.99,0.00,21.2,19.7,00.0,30.2,23.0,06.8,0000.0,0002.38,0001.70,0001.55
2022-11-16 03:57:00,,0832.5,4.99,0.00,21.2,19.7,00.0,30.2,23.0,06.8,0000.0,0002.34,0001.68,0001.55
2022-11-16 03:58:00,,0832.6,5.02,0.00,21.3,20.1,00.0,30.2,23.1,06.7,0000.0,0002.24,0001.64,0001.54
2022-11-16 03:59:00,,0832.6,5.01,0.00,21.4,21.2,00.0,30.1,23.3,06.7,0000.0,0002.19,0001.61,0001.52
